Time,TemperatureF,DewpointF,PressureIn,WindDirection,WindDirectionDegrees,WindSpeedMPH,WindSpeedGustMPH,Humidity,HourlyPrecipIn,Conditions,Clouds,dailyrainin,SoftwareType,DateUTC
2013-05-01 00:04:00,71.0,25.4,29.91,NE,45,0.0,0.0,18,0.00,,SKC,0.00,VWS V14.01,2013-05-01 07:04:00,
2013-05-01 00:09:00,71.0,25.4,29.91,NE,45,0.0,0.0,18,0.00,,SKC,0.00,VWS V14.01,2013-05-01 07:09:00,
2013-05-01 00:14:00,71.0,24.0,29.91,NE,45,0.0,0.0,17,0.00,,SKC,0.00,VWS V14.01,2013-05-01 07:14:00,
2013-05-01 00:19:00,71.0,24.0,29.91,NE,45,0.0,0.0,17,0.00,,SKC,0.00,VWS V14.01,2013-05-01 07:19:00,
2013-05-01 00:24:00,71.0,25.4,29.91,NE,45,0.0,0.0,18,0.00,,SKC,0.00,VWS V14.01,2013-05-01 07:24:00,
2013-05-01 00:30:00,71.0,25.4,29.91,NE,45,0.0,0.0,18,0.00,,SKC,0.00,VWS V14.01,2013-05-01 07:30:00,
2013-05-01 00:36:00,71.0,25.4,29.91,NE,45,0.0,0.0,18,0.00,,SKC,0.00,VWS V14.01,2013-05-01 07:36:00,
2013-05-01 00:42:00,72.0,24.8,29.91,North,0,0.0,0.0,17,0.00,,SKC,0.00,VWS V14.01,2013-05-01 07:42:00,
2013-05-01 00:47:00,72.0,24.8,29.91,North,0,0.0,0.0,17,0.00,,SKC,0.00,VWS V14.01,2013-05-01 07:47:00,
2013-05-01 00:52:00,71.0,25.4,29.91,North,0,0.0,0.0,18,0.00,,SKC,0.00,VWS V14.01,2013-05-01 07:52:00,
2013-05-01 00:57:00,71.0,25.4,29.90,NW,315,0.0,0.0,18,0.00,,SKC,0.00,VWS V14.01,2013-05-01 07:57:00,
2013-05-01 01:02:00,71.0,25.4,29.90,NW,315,0.0,1.0,18,0.00,,SKC,0.00,VWS V14.01,2013-05-01 08:02:00,
2013-05-01 01:08:00,70.0,25.9,29.90,NW,315,0.0,0.0,19,0.00,,SKC,0.00,VWS V14.01,2013-05-01 08:08:00,
2013-05-01 01:14:00,70.0,25.9,29.90,West,270,0.0,0.0,19,0.00,,SKC,0.00,VWS V14.01,2013-05-01 08:14:00,
2013-05-01 01:19:00,70.0,25.9,29.90,WNW,292,0.0,0.0,19,0.00,,SKC,0.00,VWS V14.01,2013-05-01 08:19:00,
2013-05-01 01:24:00,70.0,27.1,29.90,WSW,248,0.0,0.0,20,0.00,,SKC,0.00,VWS V14.01,2013-05-01 08:24:00,
2013-05-01 01:29:00,70.0,25.9,29.90,West,270,0.0,0.0,19,0.00,,SKC,0.00,VWS V14.01,2013-05-01 08:29:00,
2013-05-01 01:34:00,70.0,25.9,29.90,West,270,0.0,0.0,19,0.00,,SKC,0.00,VWS V14.01,2013-05-01 08:34:00,
2013-05-01 01:40:00,69.0,26.3,29.90,West,270,0.0,0.0,20,0.00,,SKC,0.00,VWS V14.01,2013-05-01 08:40:00,
2013-05-01 01:46:00,69.0,26.3,29.90,West,270,0.0,0.0,20,0.00,,SKC,0.00,VWS V14.01,2013-05-01 08:46:00,
2013-05-01 01:51:00,68.0,26.6,29.90,West,270,0.0,0.0,21,0.00,,SKC,0.00,VWS V14.01,2013-05-01 08:51:00,
2013-05-01 01:56:00,68.0,26.6,29.90,West,270,0.0,0.0,21,0.00,,SKC,0.00,VWS V14.01,2013-05-01 08:56:00,
2013-05-01 02:01:00,68.0,26.6,29.90,West,270,0.0,0.0,21,0.00,,SKC,0.00,VWS V14.01,2013-05-01 09:01:00,
2013-05-01 02:07:00,68.0,26.6,29.90,WNW,292,4.0,5.0,21,0.00,,SKC,0.00,VWS V14.01,2013-05-01 09:07:00,
2013-05-01 02:13:00,68.0,26.6,29.90,WNW,292,2.0,2.0,21,0.00,,SKC,0.00,VWS V14.01,2013-05-01 09:13:00,
2013-05-01 02:19:00,67.0,25.8,29.90,West,270,3.0,3.0,21,0.00,,SKC,0.00,VWS V14.01,2013-05-01 09:19:00,
2013-05-01 02:24:00,68.0,25.5,29.90,WSW,248,2.0,2.0,20,0.00,,SKC,0.00,VWS V14.01,2013-05-01 09:24:00,
2013-05-01 02:29:00,69.0,26.3,29.90,SW,225,3.0,3.0,20,0.00,,SKC,0.00,VWS V14.01,2013-05-01 09:29:00,
2013-05-01 02:34:00,69.0,26.3,29.90,SSW,202,2.0,3.0,20,0.00,,SKC,0.00,VWS V14.01,2013-05-01 09:34:00,
2013-05-01 02:40:00,70.0,27.1,29.90,South,180,2.0,2.0,20,0.00,,SKC,0.00,VWS V14.01,2013-05-01 09:40:00,
2013-05-01 02:46:00,70.0,27.1,29.90,SSE,158,3.0,4.0,20,0.00,,SKC,0.00,VWS V14.01,2013-05-01 09:46:00,
2013-05-01 02:52:00,70.0,27.1,29.91,SW,225,3.0,5.0,20,0.00,,SKC,0.00,VWS V14.01,2013-05-01 09:52:00,
2013-05-01 02:57:00,70.0,27.1,29.91,SSW,202,3.0,5.0,20,0.00,,SKC,0.00,VWS V14.01,2013-05-01 09:57:00,
2013-05-01 03:02:00,70.0,27.1,29.91,ENE,68,3.0,5.0,20,0.00,,SKC,0.00,VWS V14.01,2013-05-01 10:02:00,
2013-05-01 03:07:00,71.0,28.0,29.91,South,180,4.0,5.0,20,0.00,,SKC,0.00,VWS V14.01,2013-05-01 10:07:00,
2013-05-01 03:12:00,70.0,27.1,29.91,SSW,202,3.0,3.0,20,0.00,,SKC,0.00,VWS V14.01,2013-05-01 10:12:00,
2013-05-01 03:17:00,70.0,27.1,29.91,South,180,3.0,5.0,20,0.00,,SKC,0.00,VWS V14.01,2013-05-01 10:17:00,
2013-05-01 03:22:00,70.0,27.1,29.91,SSE,158,3.0,3.0,20,0.00,,SKC,0.00,VWS V14.01,2013-05-01 10:22:00,
2013-05-01 03:27:00,70.0,27.1,29.91,SW,225,3.0,3.0,20,0.00,,SKC,0.00,VWS V14.01,2013-05-01 10:27:00,
2013-05-01 03:32:00,70.0,27.1,29.91,SSE,158,2.0,4.0,20,0.00,,SKC,0.00,VWS V14.01,2013-05-01 10:32:00,
2013-05-01 03:38:00,69.0,27.5,29.91,SW,225,3.0,3.0,21,0.00,,SKC,0.00,VWS V14.01,2013-05-01 10:38:00,
2013-05-01 03:43:00,69.0,27.5,29.91,SW,225,1.0,3.0,21,0.00,,SKC,0.00,VWS V14.01,2013-05-01 10:43:00,
2013-05-01 03:48:00,69.0,26.3,29.92,SW,225,2.0,2.0,20,0.00,,SKC,0.00,VWS V14.01,2013-05-01 10:48:00,
2013-05-01 03:53:00,69.0,26.3,29.92,SSW,202,4.0,5.0,20,0.00,,SKC,0.00,VWS V14.01,2013-05-01 10:53:00,
2013-05-01 03:58:00,69.0,26.3,29.92,SSE,158,5.0,5.0,20,0.00,,SKC,0.00,VWS V14.01,2013-05-01 10:58:00,
2013-05-01 04:04:00,70.0,27.1,29.92,South,180,2.0,3.0,20,0.00,,SKC,0.00,VWS V14.01,2013-05-01 11:04:00,
2013-05-01 04:10:00,69.0,26.3,29.92,SW,225,4.0,5.0,20,0.00,,SKC,0.00,VWS V14.01,2013-05-01 11:10:00,
2013-05-01 04:15:00,69.0,26.3,29.92,SSE,158,6.0,8.0,20,0.00,,SKC,0.00,VWS V14.01,2013-05-01 11:15:00,
2013-05-01 04:20:00,69.0,26.3,29.92,SSW,202,3.0,3.0,20,0.00,,SKC,0.00,VWS V14.01,2013-05-01 11:20:00,
2013-05-01 04:25:00,69.0,26.3,29.92,South,180,6.0,6.0,20,0.00,,SKC,0.00,VWS V14.01,2013-05-01 11:25:00,
2013-05-01 04:30:00,69.0,26.3,29.92,SSE,158,5.0,5.0,20,0.00,,SKC,0.00,VWS V14.01,2013-05-01 11:30:00,
2013-05-01 04:36:00,70.0,25.9,29.92,SE,135,5.0,6.0,19,0.00,,SKC,0.00,VWS V14.01,2013-05-01 11:36:00,
2013-05-01 04:41:00,70.0,25.9,29.92,SSE,158,5.0,6.0,19,0.00,,SKC,0.00,VWS V14.01,2013-05-01 11:41:00,
2013-05-01 04:46:00,70.0,25.9,29.93,SSE,158,5.0,6.0,19,0.00,,SKC,0.00,VWS V14.01,2013-05-01 11:46:00,
2013-05-01 04:51:00,70.0,25.9,29.93,SE,135,6.0,6.0,19,0.00,,SKC,0.00,VWS V14.01,2013-05-01 11:51:00,
2013-05-01 04:56:00,70.0,24.6,29.93,SSE,158,5.0,8.0,18,0.00,,SKC,0.00,VWS V14.01,2013-05-01 11:56:00,
2013-05-01 05:01:00,70.0,24.6,29.93,SE,135,8.0,8.0,18,0.00,,SKC,0.00,VWS V14.01,2013-05-01 12:01:00,
2013-05-01 05:06:00,70.0,24.6,29.93,SSE,158,7.0,7.0,18,0.00,,SKC,0.00,VWS V14.01,2013-05-01 12:06:00,
2013-05-01 05:11:00,71.0,25.4,29.93,South,180,5.0,5.0,18,0.00,,SKC,0.00,VWS V14.01,2013-05-01 12:11:00,
2013-05-01 05:16:00,71.0,25.4,29.93,South,180,6.0,8.0,18,0.00,,SKC,0.00,VWS V14.01,2013-05-01 12:16:00,
2013-05-01 05:21:00,70.0,24.6,29.93,SSW,202,3.0,5.0,18,0.00,,SKC,0.00,VWS V14.01,2013-05-01 12:21:00,
2013-05-01 05:26:00,70.0,24.6,29.94,South,180,3.0,3.0,18,0.00,,SKC,0.00,VWS V14.01,2013-05-01 12:26:00,
2013-05-01 05:31:00,70.0,24.6,29.94,SSE,158,6.0,6.0,18,0.00,,SKC,0.00,VWS V14.01,2013-05-01 12:31:00,
2013-05-01 05:36:00,70.0,24.6,29.94,South,180,6.0,6.0,18,0.00,,SKC,0.00,VWS V14.01,2013-05-01 12:36:00,
2013-05-01 05:41:00,70.0,24.6,29.94,SSW,202,2.0,3.0,18,0.00,,SKC,0.00,VWS V14.01,2013-05-01 12:41:00,
2013-05-01 05:46:00,69.0,25.1,29.94,South,180,3.0,4.0,19,0.00,,SKC,0.00,VWS V14.01,2013-05-01 12:46:00,
2013-05-01 05:51:00,69.0,25.1,29.94,SW,225,3.0,4.0,19,0.00,,SKC,0.00,VWS V14.01,2013-05-01 12:51:00,
2013-05-01 05:56:00,69.0,25.1,29.95,SW,225,5.0,5.0,19,0.00,,SKC,0.00,VWS V14.01,2013-05-01 12:56:00,
2013-05-01 06:01:00,69.0,25.1,29.95,SSW,202,1.0,2.0,19,0.00,,SKC,0.00,VWS V14.01,2013-05-01 13:01:00,
2013-05-01 06:06:00,69.0,25.1,29.95,SW,225,3.0,4.0,19,0.00,,SKC,0.00,VWS V14.01,2013-05-01 13:06:00,
2013-05-01 06:11:00,69.0,26.3,29.95,SW,225,1.0,3.0,20,0.00,,SKC,0.00,VWS V14.01,2013-05-01 13:11:00,
2013-05-01 06:16:00,69.0,26.3,29.95,South,180,1.0,2.0,20,0.00,,SKC,0.00,VWS V14.01,2013-05-01 13:16:00,
2013-05-01 06:21:00,69.0,26.3,29.96,SE,135,3.0,4.0,20,0.00,,SKC,0.00,VWS V14.01,2013-05-01 13:21:00,
2013-05-01 06:26:00,69.0,26.3,29.96,SSE,158,5.0,8.0,20,0.00,,SKC,0.00,VWS V14.01,2013-05-01 13:26:00,
2013-05-01 06:31:00,70.0,25.9,29.96,South,180,7.0,8.0,19,0.00,,SKC,0.00,VWS V14.01,2013-05-01 13:31:00,
2013-05-01 06:36:00,71.0,25.4,29.96,SSE,158,6.0,8.0,18,0.00,,SKC,0.00,VWS V14.01,2013-05-01 13:36:00,
2013-05-01 06:41:00,71.0,25.4,29.96,SSE,158,6.0,6.0,18,0.00,,SKC,0.00,VWS V14.01,2013-05-01 13:41:00,
2013-05-01 06:46:00,72.0,26.2,29.96,SSE,158,8.0,10.0,18,0.00,,SKC,0.00,VWS V14.01,2013-05-01 13:46:00,
2013-05-01 06:51:00,72.0,26.2,29.96,SSE,158,5.0,5.0,18,0.00,,SKC,0.00,VWS V14.01,2013-05-01 13:51:00,
2013-05-01 06:56:00,73.0,27.0,29.97,SE,135,5.0,6.0,18,0.00,,SKC,0.00,VWS V14.01,2013-05-01 13:56:00,
2013-05-01 07:01:00,73.0,27.0,29.97,SSE,158,5.0,6.0,18,0.00,,SKC,0.00,VWS V14.01,2013-05-01 14:01:00,
2013-05-01 07:06:00,74.0,27.9,29.97,ESE,112,5.0,5.0,18,0.00,,SKC,0.00,VWS V14.01,2013-05-01 14:06:00,
2013-05-01 07:11:00,74.0,26.5,29.97,SSE,158,8.0,11.0,17,0.00,,SKC,0.00,VWS V14.01,2013-05-01 14:11:00,
2013-05-01 07:16:00,74.0,27.9,29.98,SSE,158,6.0,8.0,18,0.00,,SKC,0.00,VWS V14.01,2013-05-01 14:16:00,
2013-05-01 07:21:00,75.0,27.3,29.98,SSE,158,6.0,8.0,17,0.00,,SKC,0.00,VWS V14.01,2013-05-01 14:21:00,
2013-05-01 07:26:00,75.0,28.7,29.98,SSE,158,5.0,5.0,18,0.00,,SKC,0.00,VWS V14.01,2013-05-01 14:26:00,
2013-05-01 07:31:00,75.0,28.7,29.98,SSE,158,6.0,6.0,18,0.00,,SKC,0.00,VWS V14.01,2013-05-01 14:31:00,
2013-05-01 07:36:00,75.0,28.7,29.98,SSE,158,3.0,3.0,18,0.00,,SKC,0.00,VWS V14.01,2013-05-01 14:36:00,
2013-05-01 07:41:00,75.0,27.3,29.98,South,180,6.0,6.0,17,0.00,,SKC,0.00,VWS V14.01,2013-05-01 14:41:00,
2013-05-01 07:46:00,76.0,29.5,29.99,SE,135,6.0,7.0,18,0.00,,SKC,0.00,VWS V14.01,2013-05-01 14:46:00,
2013-05-01 07:51:00,76.0,28.1,29.99,SSE,158,6.0,9.0,17,0.00,,SKC,0.00,VWS V14.01,2013-05-01 14:51:00,
2013-05-01 07:56:00,76.0,28.1,29.99,SW,225,4.0,4.0,17,0.00,,SKC,0.00,VWS V14.01,2013-05-01 14:56:00,
2013-05-01 08:01:00,76.0,28.1,29.99,SSW,202,4.0,5.0,17,0.00,,SKC,0.00,VWS V14.01,2013-05-01 15:01:00,
2013-05-01 08:06:00,77.0,28.9,30.00,SSE,158,5.0,7.0,17,0.00,,SKC,0.00,VWS V14.01,2013-05-01 15:06:00,
2013-05-01 08:11:00,77.0,28.9,30.00,SSW,202,5.0,7.0,17,0.00,,SKC,0.00,VWS V14.01,2013-05-01 15:11:00,
2013-05-01 08:16:00,76.0,29.5,30.00,SSW,202,5.0,5.0,18,0.00,,SKC,0.00,VWS V14.01,2013-05-01 15:16:00,
2013-05-01 08:21:00,76.0,29.5,30.00,SSE,158,4.0,5.0,18,0.00,,SKC,0.00,VWS V14.01,2013-05-01 15:21:00,
2013-05-01 08:26:00,77.0,30.3,30.00,SSE,158,3.0,5.0,18,0.00,,SKC,0.00,VWS V14.01,2013-05-01 15:26:00,
2013-05-01 08:31:00,77.0,30.3,30.00,WSW,248,5.0,7.0,18,0.00,,SKC,0.00,VWS V14.01,2013-05-01 15:31:00,
2013-05-01 08:36:00,77.0,30.3,30.00,SSW,202,5.0,5.0,18,0.00,,SKC,0.00,VWS V14.01,2013-05-01 15:36:00,
2013-05-01 08:41:00,77.0,30.3,30.00,SW,225,3.0,3.0,18,0.00,,SKC,0.00,VWS V14.01,2013-05-01 15:41:00,
2013-05-01 08:46:00,78.0,31.1,30.00,South,180,3.0,5.0,18,0.00,,SKC,0.00,VWS V14.01,2013-05-01 15:46:00,
2013-05-01 08:51:00,78.0,31.1,30.00,East,90,3.0,4.0,18,0.00,,SKC,0.00,VWS V14.01,2013-05-01 15:51:00,
2013-05-01 08:56:00,78.0,29.7,30.00,SSE,158,8.0,9.0,17,0.00,,SKC,0.00,VWS V14.01,2013-05-01 15:56:00,
2013-05-01 09:01:00,78.0,28.2,30.00,SSW,202,9.0,12.0,16,0.00,,SKC,0.00,VWS V14.01,2013-05-01 16:01:00,
2013-05-01 09:06:00,78.0,28.2,30.00,South,180,5.0,9.0,16,0.00,,SKC,0.00,VWS V14.01,2013-05-01 16:06:00,
2013-05-01 09:11:00,78.0,28.2,30.01,SSE,158,8.0,12.0,16,0.00,,SKC,0.00,VWS V14.01,2013-05-01 16:11:00,
2013-05-01 09:16:00,79.0,29.0,30.01,South,180,5.0,7.0,16,0.00,,SKC,0.00,VWS V14.01,2013-05-01 16:16:00,
2013-05-01 09:21:00,79.0,29.0,30.01,SSE,158,18.0,18.0,16,0.00,,SKC,0.00,VWS V14.01,2013-05-01 16:21:00,
2013-05-01 09:26:00,79.0,29.0,30.01,SE,135,12.0,14.0,16,0.00,,SKC,0.00,VWS V14.01,2013-05-01 16:26:00,
2013-05-01 09:31:00,79.0,29.0,30.01,SE,135,13.0,13.0,16,0.00,,SKC,0.00,VWS V14.01,2013-05-01 16:31:00,
2013-05-01 09:36:00,79.0,29.0,30.01,SE,135,10.0,10.0,16,0.00,,SKC,0.00,VWS V14.01,2013-05-01 16:36:00,
2013-05-01 09:42:00,79.0,27.5,30.01,SE,135,8.0,11.0,15,0.00,,SKC,0.00,VWS V14.01,2013-05-01 16:42:00,
2013-05-01 09:47:00,79.0,29.0,30.01,SSE,158,8.0,10.0,16,0.00,,SKC,0.00,VWS V14.01,2013-05-01 16:47:00,
2013-05-01 09:52:00,80.0,28.2,30.01,SSE,158,15.0,15.0,15,0.00,,SKC,0.00,VWS V14.01,2013-05-01 16:52:00,
2013-05-01 09:57:00,80.0,28.2,30.01,SW,225,8.0,8.0,15,0.00,,SKC,0.00,VWS V14.01,2013-05-01 16:57:00,
2013-05-01 10:02:00,80.0,28.2,30.01,SSE,158,6.0,6.0,15,0.00,,SKC,0.00,VWS V14.01,2013-05-01 17:02:00,
2013-05-01 10:07:00,80.0,28.2,30.01,SSE,158,9.0,11.0,15,0.00,,SKC,0.00,VWS V14.01,2013-05-01 17:07:00,
2013-05-01 10:12:00,81.0,29.0,30.01,South,180,4.0,6.0,15,0.00,,SKC,0.00,VWS V14.01,2013-05-01 17:12:00,
2013-05-01 10:17:00,81.0,29.0,30.01,SE,135,6.0,6.0,15,0.00,,SKC,0.00,VWS V14.01,2013-05-01 17:17:00,
2013-05-01 10:22:00,81.0,27.4,30.01,SE,135,8.0,11.0,14,0.00,,SKC,0.00,VWS V14.01,2013-05-01 17:22:00,
2013-05-01 10:27:00,81.0,29.0,30.01,ENE,68,5.0,8.0,15,0.00,,SKC,0.00,VWS V14.01,2013-05-01 17:27:00,
2013-05-01 10:32:00,81.0,27.4,30.02,South,180,7.0,8.0,14,0.00,,SKC,0.00,VWS V14.01,2013-05-01 17:32:00,
2013-05-01 10:37:00,81.0,27.4,30.02,SSE,158,3.0,5.0,14,0.00,,SKC,0.00,VWS V14.01,2013-05-01 17:37:00,
2013-05-01 10:42:00,82.0,28.1,30.02,South,180,3.0,5.0,14,0.00,,SKC,0.00,VWS V14.01,2013-05-01 17:42:00,
2013-05-01 10:47:00,81.0,27.4,30.02,South,180,4.0,5.0,14,0.00,,SKC,0.00,VWS V14.01,2013-05-01 17:47:00,
2013-05-01 10:52:00,81.0,27.4,30.01,SE,135,3.0,4.0,14,0.00,,SKC,0.00,VWS V14.01,2013-05-01 17:52:00,
2013-05-01 10:57:00,81.0,27.4,30.01,ESE,112,7.0,8.0,14,0.00,,SKC,0.00,VWS V14.01,2013-05-01 17:57:00,
2013-05-01 11:02:00,82.0,26.4,30.01,SSE,158,8.0,9.0,13,0.00,,SKC,0.00,VWS V14.01,2013-05-01 18:02:00,
2013-05-01 11:07:00,82.0,28.1,30.02,ESE,112,6.0,7.0,14,0.00,,SKC,0.00,VWS V14.01,2013-05-01 18:07:00,
2013-05-01 11:12:00,83.0,27.1,30.02,ESE,112,8.0,9.0,13,0.00,,SKC,0.00,VWS V14.01,2013-05-01 18:12:00,
2013-05-01 11:17:00,84.0,27.9,30.01,South,180,3.0,5.0,13,0.00,,SKC,0.00,VWS V14.01,2013-05-01 18:17:00,
2013-05-01 11:22:00,83.0,27.1,30.01,SE,135,8.0,8.0,13,0.00,,SKC,0.00,VWS V14.01,2013-05-01 18:22:00,
2013-05-01 11:27:00,84.0,27.9,30.01,ENE,68,6.0,6.0,13,0.00,,SKC,0.00,VWS V14.01,2013-05-01 18:27:00,
2013-05-01 11:32:00,83.0,27.1,30.01,NE,45,1.0,1.0,13,0.00,,SKC,0.00,VWS V14.01,2013-05-01 18:32:00,
2013-05-01 11:37:00,85.0,28.7,30.01,SE,135,3.0,4.0,13,0.00,,SKC,0.00,VWS V14.01,2013-05-01 18:37:00,
2013-05-01 11:42:00,86.0,27.5,30.01,SSW,202,5.0,6.0,12,0.00,,SKC,0.00,VWS V14.01,2013-05-01 18:42:00,
2013-05-01 11:47:00,86.0,27.5,30.01,SW,225,3.0,4.0,12,0.00,,SKC,0.00,VWS V14.01,2013-05-01 18:47:00,
2013-05-01 11:52:00,86.0,27.5,30.01,SSE,158,6.0,6.0,12,0.00,,SKC,0.00,VWS V14.01,2013-05-01 18:52:00,
2013-05-01 11:57:00,87.0,28.3,30.01,WSW,248,7.0,7.0,12,0.00,,SKC,0.00,VWS V14.01,2013-05-01 18:57:00,
2013-05-01 12:02:00,87.0,28.3,30.01,WSW,248,2.0,2.0,12,0.00,,SKC,0.00,VWS V14.01,2013-05-01 19:02:00,
2013-05-01 12:07:00,86.0,27.5,30.01,ENE,68,8.0,10.0,12,0.00,,SKC,0.00,VWS V14.01,2013-05-01 19:07:00,
2013-05-01 12:12:00,85.0,26.8,30.01,SSE,158,6.0,6.0,12,0.00,,SKC,0.00,VWS V14.01,2013-05-01 19:12:00,
2013-05-01 12:17:00,86.0,27.5,30.01,SSW,202,3.0,4.0,12,0.00,,SKC,0.00,VWS V14.01,2013-05-01 19:17:00,
2013-05-01 12:22:00,87.0,26.2,30.01,SE,135,6.0,9.0,11,0.00,,SKC,0.00,VWS V14.01,2013-05-01 19:22:00,
2013-05-01 12:27:00,86.0,27.5,30.01,ENE,68,5.0,6.0,12,0.00,,SKC,0.00,VWS V14.01,2013-05-01 19:27:00,
2013-05-01 12:32:00,86.0,25.4,30.01,ENE,68,6.0,6.0,11,0.00,,SKC,0.00,VWS V14.01,2013-05-01 19:32:00,
2013-05-01 12:37:00,87.0,26.2,30.01,ESE,112,5.0,5.0,11,0.00,,SKC,0.00,VWS V14.01,2013-05-01 19:37:00,
2013-05-01 12:42:00,87.0,26.2,30.01,SE,135,4.0,4.0,11,0.00,,SKC,0.00,VWS V14.01,2013-05-01 19:42:00,
2013-05-01 12:47:00,87.0,23.9,30.01,SW,225,7.0,9.0,10,0.00,,SKC,0.00,VWS V14.01,2013-05-01 19:47:00,
2013-05-01 12:52:00,87.0,23.9,30.01,NW,315,4.0,4.0,10,0.00,,SKC,0.00,VWS V14.01,2013-05-01 19:52:00,
2013-05-01 12:57:00,88.0,27.0,30.01,South,180,0.0,1.0,11,0.00,,SKC,0.00,VWS V14.01,2013-05-01 19:57:00,
2013-05-01 13:02:00,88.0,24.7,30.01,WSW,248,4.0,6.0,10,0.00,,SKC,0.00,VWS V14.01,2013-05-01 20:02:00,
2013-05-01 13:07:00,87.0,23.9,30.01,West,270,10.0,10.0,10,0.00,,SKC,0.00,VWS V14.01,2013-05-01 20:07:00,
2013-05-01 13:12:00,87.0,23.9,30.01,SW,225,9.0,10.0,10,0.00,,SKC,0.00,VWS V14.01,2013-05-01 20:12:00,
2013-05-01 13:17:00,88.0,24.7,30.00,WSW,248,8.0,10.0,10,0.00,,SKC,0.00,VWS V14.01,2013-05-01 20:17:00,
2013-05-01 13:22:00,88.0,24.7,30.00,WSW,248,13.0,13.0,10,0.00,,SKC,0.00,VWS V14.01,2013-05-01 20:22:00,
2013-05-01 13:27:00,88.0,24.7,30.01,SW,225,5.0,5.0,10,0.00,,SKC,0.00,VWS V14.01,2013-05-01 20:27:00,
2013-05-01 13:32:00,88.0,22.2,30.01,WNW,292,3.0,5.0,9,0.00,,SKC,0.00,VWS V14.01,2013-05-01 20:32:00,
2013-05-01 13:37:00,88.0,24.7,30.00,WNW,292,11.0,12.0,10,0.00,,SKC,0.00,VWS V14.01,2013-05-01 20:37:00,
2013-05-01 13:42:00,87.0,23.9,30.01,SW,225,3.0,4.0,10,0.00,,SKC,0.00,VWS V14.01,2013-05-01 20:42:00,
2013-05-01 13:47:00,89.0,25.4,30.01,WSW,248,8.0,10.0,10,0.00,,SKC,0.00,VWS V14.01,2013-05-01 20:47:00,
2013-05-01 13:52:00,89.0,22.9,30.01,SW,225,3.0,6.0,9,0.00,,SKC,0.00,VWS V14.01,2013-05-01 20:52:00,
2013-05-01 13:57:00,90.0,23.7,30.00,SSE,158,6.0,8.0,9,0.00,,SKC,0.00,VWS V14.01,2013-05-01 20:57:00,
2013-05-01 14:02:00,90.0,23.7,30.01,SW,225,4.0,4.0,9,0.00,,SKC,0.00,VWS V14.01,2013-05-01 21:02:00,
2013-05-01 14:07:00,91.0,24.4,30.00,SSE,158,5.0,5.0,9,0.00,,SKC,0.00,VWS V14.01,2013-05-01 21:07:00,
2013-05-01 14:12:00,90.0,23.7,30.00,WSW,248,8.0,12.0,9,0.00,,SKC,0.00,VWS V14.01,2013-05-01 21:12:00,
2013-05-01 14:17:00,89.0,22.9,30.00,West,270,4.0,4.0,9,0.00,,SKC,0.00,VWS V14.01,2013-05-01 21:17:00,
2013-05-01 14:22:00,89.0,22.9,30.00,WSW,248,7.0,7.0,9,0.00,,SKC,0.00,VWS V14.01,2013-05-01 21:22:00,
2013-05-01 14:27:00,89.0,22.9,29.99,West,270,11.0,11.0,9,0.00,,SKC,0.00,VWS V14.01,2013-05-01 21:27:00,
2013-05-01 14:32:00,88.0,22.2,30.00,NW,315,6.0,9.0,9,0.00,,SKC,0.00,VWS V14.01,2013-05-01 21:32:00,
2013-05-01 14:37:00,88.0,24.7,30.00,West,270,6.0,6.0,10,0.00,,SKC,0.00,VWS V14.01,2013-05-01 21:37:00,
2013-05-01 14:42:00,89.0,22.9,30.00,SW,225,5.0,7.0,9,0.00,,SKC,0.00,VWS V14.01,2013-05-01 21:42:00,
2013-05-01 14:47:00,89.0,22.9,30.00,SW,225,9.0,10.0,9,0.00,,SKC,0.00,VWS V14.01,2013-05-01 21:47:00,
2013-05-01 14:52:00,89.0,20.1,29.99,WNW,292,6.0,6.0,8,0.00,,SKC,0.00,VWS V14.01,2013-05-01 21:52:00,
2013-05-01 14:57:00,89.0,22.9,29.99,WSW,248,13.0,14.0,9,0.00,,SKC,0.00,VWS V14.01,2013-05-01 21:57:00,
2013-05-01 15:02:00,89.0,22.9,29.99,WSW,248,8.0,8.0,9,0.00,,SKC,0.00,VWS V14.01,2013-05-01 22:02:00,
2013-05-01 15:07:00,88.0,19.4,29.99,SW,225,3.0,4.0,8,0.00,,SKC,0.00,VWS V14.01,2013-05-01 22:07:00,
2013-05-01 15:12:00,89.0,20.1,29.99,SW,225,9.0,9.0,8,0.00,,SKC,0.00,VWS V14.01,2013-05-01 22:12:00,
2013-05-01 15:17:00,90.0,20.9,29.99,WSW,248,6.0,8.0,8,0.00,,SKC,0.00,VWS V14.01,2013-05-01 22:17:00,
2013-05-01 15:22:00,89.0,20.1,29.99,SSW,202,6.0,6.0,8,0.00,,SKC,0.00,VWS V14.01,2013-05-01 22:22:00,
2013-05-01 15:27:00,89.0,20.1,29.99,West,270,10.0,11.0,8,0.00,,SKC,0.00,VWS V14.01,2013-05-01 22:27:00,
2013-05-01 15:32:00,88.0,19.4,29.99,West,270,8.0,9.0,8,0.00,,SKC,0.00,VWS V14.01,2013-05-01 22:32:00,
2013-05-01 15:37:00,89.0,22.9,29.99,NNE,22,5.0,5.0,9,0.00,,SKC,0.00,VWS V14.01,2013-05-01 22:37:00,
2013-05-01 15:42:00,89.0,22.9,29.99,NW,315,3.0,3.0,9,0.00,,SKC,0.00,VWS V14.01,2013-05-01 22:42:00,
2013-05-01 15:47:00,89.0,22.9,29.99,SW,225,5.0,6.0,9,0.00,,SKC,0.00,VWS V14.01,2013-05-01 22:47:00,
2013-05-01 15:52:00,90.0,23.7,29.99,SW,225,6.0,6.0,9,0.00,,SKC,0.00,VWS V14.01,2013-05-01 22:52:00,
2013-05-01 15:57:00,90.0,26.2,29.98,North,0,3.0,4.0,10,0.00,,SKC,0.00,VWS V14.01,2013-05-01 22:57:00,
2013-05-01 16:02:00,88.0,24.7,29.99,WSW,248,8.0,9.0,10,0.00,,SKC,0.00,VWS V14.01,2013-05-01 23:02:00,
2013-05-01 16:07:00,88.0,22.2,29.99,West,270,8.0,9.0,9,0.00,,SKC,0.00,VWS V14.01,2013-05-01 23:07:00,
2013-05-01 16:12:00,88.0,22.2,29.99,West,270,9.0,10.0,9,0.00,,SKC,0.00,VWS V14.01,2013-05-01 23:12:00,
2013-05-01 16:17:00,88.0,24.7,29.99,WSW,248,6.0,6.0,10,0.00,,SKC,0.00,VWS V14.01,2013-05-01 23:17:00,
2013-05-01 16:22:00,88.0,24.7,29.99,WNW,292,7.0,9.0,10,0.00,,SKC,0.00,VWS V14.01,2013-05-01 23:22:00,
2013-05-01 16:27:00,87.0,23.9,29.99,SW,225,10.0,13.0,10,0.00,,SKC,0.00,VWS V14.01,2013-05-01 23:27:00,
2013-05-01 16:32:00,87.0,23.9,29.99,West,270,8.0,10.0,10,0.00,,SKC,0.00,VWS V14.01,2013-05-01 23:32:00,
2013-05-01 16:37:00,87.0,23.9,29.99,WNW,292,6.0,7.0,10,0.00,,SKC,0.00,VWS V14.01,2013-05-01 23:37:00,
2013-05-01 16:42:00,88.0,24.7,29.99,SW,225,6.0,8.0,10,0.00,,SKC,0.00,VWS V14.01,2013-05-01 23:42:00,
2013-05-01 16:47:00,89.0,22.9,29.99,SW,225,2.0,3.0,9,0.00,,SKC,0.00,VWS V14.01,2013-05-01 23:47:00,
2013-05-01 16:52:00,89.0,25.4,29.99,WNW,292,5.0,6.0,10,0.00,,SKC,0.00,VWS V14.01,2013-05-01 23:52:00,
2013-05-01 16:57:00,88.0,24.7,29.99,WSW,248,9.0,10.0,10,0.00,,SKC,0.00,VWS V14.01,2013-05-01 23:57:00,
2013-05-01 17:02:00,88.0,24.7,29.99,WNW,292,6.0,8.0,10,0.00,,SKC,0.00,VWS V14.01,2013-05-02 00:02:00,
2013-05-01 17:07:00,88.0,24.7,29.99,NW,315,9.0,10.0,10,0.00,,SKC,0.00,VWS V14.01,2013-05-02 00:07:00,
2013-05-01 17:12:00,87.0,23.9,29.99,NW,315,7.0,7.0,10,0.00,,SKC,0.00,VWS V14.01,2013-05-02 00:12:00,
2013-05-01 17:17:00,88.0,27.0,29.99,NW,315,5.0,5.0,11,0.00,,SKC,0.00,VWS V14.01,2013-05-02 00:17:00,
2013-05-01 17:22:00,87.0,23.9,29.99,WSW,248,5.0,7.0,10,0.00,,SKC,0.00,VWS V14.01,2013-05-02 00:22:00,
2013-05-01 17:27:00,87.0,23.9,29.99,SW,225,9.0,9.0,10,0.00,,SKC,0.00,VWS V14.01,2013-05-02 00:27:00,
2013-05-01 17:32:00,87.0,26.2,29.99,WNW,292,8.0,10.0,11,0.00,,SKC,0.00,VWS V14.01,2013-05-02 00:32:00,
2013-05-01 17:37:00,87.0,26.2,29.99,West,270,9.0,9.0,11,0.00,,SKC,0.00,VWS V14.01,2013-05-02 00:37:00,
2013-05-01 17:42:00,87.0,26.2,29.99,West,270,7.0,9.0,11,0.00,,SKC,0.00,VWS V14.01,2013-05-02 00:42:00,
2013-05-01 17:47:00,87.0,26.2,29.99,WNW,292,3.0,4.0,11,0.00,,SKC,0.00,VWS V14.01,2013-05-02 00:47:00,
2013-05-01 17:52:00,86.0,25.4,29.99,West,270,10.0,11.0,11,0.00,,SKC,0.00,VWS V14.01,2013-05-02 00:52:00,
2013-05-01 17:57:00,86.0,25.4,29.99,West,270,5.0,7.0,11,0.00,,SKC,0.00,VWS V14.01,2013-05-02 00:57:00,
2013-05-01 18:02:00,86.0,25.4,30.00,WNW,292,10.0,10.0,11,0.00,,SKC,0.00,VWS V14.01,2013-05-02 01:02:00,
2013-05-01 18:07:00,86.0,25.4,29.99,West,270,6.0,8.0,11,0.00,,SKC,0.00,VWS V14.01,2013-05-02 01:07:00,
2013-05-01 18:12:00,86.0,25.4,29.99,West,270,10.0,11.0,11,0.00,,SKC,0.00,VWS V14.01,2013-05-02 01:12:00,
2013-05-01 18:17:00,85.0,26.8,30.00,West,270,6.0,6.0,12,0.00,,SKC,0.00,VWS V14.01,2013-05-02 01:17:00,
2013-05-01 18:22:00,85.0,26.8,30.00,WNW,292,5.0,6.0,12,0.00,,SKC,0.00,VWS V14.01,2013-05-02 01:22:00,
2013-05-01 18:27:00,85.0,26.8,30.00,WNW,292,6.0,8.0,12,0.00,,SKC,0.00,VWS V14.01,2013-05-02 01:27:00,
2013-05-01 18:32:00,84.0,26.0,30.00,NW,315,11.0,13.0,12,0.00,,SKC,0.00,VWS V14.01,2013-05-02 01:32:00,
2013-05-01 18:37:00,85.0,26.8,30.00,WNW,292,6.0,6.0,12,0.00,,SKC,0.00,VWS V14.01,2013-05-02 01:37:00,
2013-05-01 18:42:00,84.0,26.0,30.00,WNW,292,9.0,9.0,12,0.00,,SKC,0.00,VWS V14.01,2013-05-02 01:42:00,
2013-05-01 18:47:00,84.0,26.0,30.01,WNW,292,5.0,6.0,12,0.00,,SKC,0.00,VWS V14.01,2013-05-02 01:47:00,
2013-05-01 18:52:00,83.0,25.2,30.01,WNW,292,6.0,8.0,12,0.00,,SKC,0.00,VWS V14.01,2013-05-02 01:52:00,
2013-05-01 18:57:00,83.0,27.1,30.00,WNW,292,4.0,4.0,13,0.00,,SKC,0.00,VWS V14.01,2013-05-02 01:57:00,
2013-05-01 19:02:00,82.0,26.4,30.01,NNW,338,3.0,5.0,13,0.00,,SKC,0.00,VWS V14.01,2013-05-02 02:02:00,
2013-05-01 19:07:00,82.0,26.4,30.01,NW,315,4.0,4.0,13,0.00,,SKC,0.00,VWS V14.01,2013-05-02 02:07:00,
2013-05-01 19:12:00,82.0,26.4,30.01,NW,315,3.0,5.0,13,0.00,,SKC,0.00,VWS V14.01,2013-05-02 02:12:00,
2013-05-01 19:17:00,81.0,25.6,30.01,NW,315,3.0,4.0,13,0.00,,SKC,0.00,VWS V14.01,2013-05-02 02:17:00,
2013-05-01 19:22:00,81.0,27.4,30.01,NW,315,3.0,4.0,14,0.00,,SKC,0.00,VWS V14.01,2013-05-02 02:22:00,
2013-05-01 19:27:00,81.0,27.4,30.01,NW,315,3.0,3.0,14,0.00,,SKC,0.00,VWS V14.01,2013-05-02 02:27:00,
2013-05-01 19:32:00,80.0,26.6,30.01,NW,315,3.0,3.0,14,0.00,,SKC,0.00,VWS V14.01,2013-05-02 02:32:00,
2013-05-01 19:37:00,80.0,26.6,30.02,NNW,338,3.0,4.0,14,0.00,,SKC,0.00,VWS V14.01,2013-05-02 02:37:00,
2013-05-01 19:42:00,80.0,26.6,30.02,NNW,338,2.0,3.0,14,0.00,,SKC,0.00,VWS V14.01,2013-05-02 02:42:00,
2013-05-01 19:47:00,80.0,26.6,30.02,NW,315,3.0,3.0,14,0.00,,SKC,0.00,VWS V14.01,2013-05-02 02:47:00,
2013-05-01 19:52:00,80.0,28.2,30.02,NNW,338,1.0,2.0,15,0.00,,SKC,0.00,VWS V14.01,2013-05-02 02:52:00,
2013-05-01 19:57:00,79.0,27.5,30.02,North,0,3.0,3.0,15,0.00,,SKC,0.00,VWS V14.01,2013-05-02 02:57:00,
2013-05-01 20:02:00,79.0,27.5,30.02,North,0,2.0,3.0,15,0.00,,SKC,0.00,VWS V14.01,2013-05-02 03:02:00,
2013-05-01 20:07:00,79.0,27.5,30.02,North,0,2.0,4.0,15,0.00,,SKC,0.00,VWS V14.01,2013-05-02 03:07:00,
2013-05-01 20:12:00,78.0,26.6,30.03,NNE,22,3.0,3.0,15,0.00,,SKC,0.00,VWS V14.01,2013-05-02 03:12:00,
2013-05-01 20:17:00,78.0,26.6,30.03,NNW,338,3.0,3.0,15,0.00,,SKC,0.00,VWS V14.01,2013-05-02 03:17:00,
2013-05-01 20:22:00,78.0,26.6,30.03,NNE,22,3.0,3.0,15,0.00,,SKC,0.00,VWS V14.01,2013-05-02 03:22:00,
2013-05-01 20:27:00,78.0,26.6,30.03,North,0,1.0,1.0,15,0.00,,SKC,0.00,VWS V14.01,2013-05-02 03:27:00,
2013-05-01 20:32:00,78.0,28.2,30.03,NNE,22,2.0,3.0,16,0.00,,SKC,0.00,VWS V14.01,2013-05-02 03:32:00,
2013-05-01 20:37:00,77.0,27.4,30.03,North,0,4.0,4.0,16,0.00,,SKC,0.00,VWS V14.01,2013-05-02 03:37:00,
2013-05-01 20:42:00,77.0,27.4,30.03,NNE,22,3.0,5.0,16,0.00,,SKC,0.00,VWS V14.01,2013-05-02 03:42:00,
2013-05-01 20:47:00,76.0,26.6,30.03,NNE,22,1.0,2.0,16,0.00,,SKC,0.00,VWS V14.01,2013-05-02 03:47:00,
2013-05-01 20:52:00,75.0,27.3,30.04,North,0,1.0,2.0,17,0.00,,SKC,0.00,VWS V14.01,2013-05-02 03:52:00,
2013-05-01 20:57:00,75.0,27.3,30.04,NE,45,3.0,3.0,17,0.00,,SKC,0.00,VWS V14.01,2013-05-02 03:57:00,
2013-05-01 21:01:00,75.0,27.3,30.04,NNE,22,3.0,3.0,17,0.00,,SKC,0.00,VWS V14.01,2013-05-02 04:01:00,
2013-05-01 21:02:00,74.0,26.5,30.04,North,0,2.0,2.0,17,0.00,,SKC,0.00,VWS V14.01,2013-05-02 04:02:00,
2013-05-01 21:03:00,74.0,26.5,30.04,NNE,22,4.0,4.0,17,0.00,,SKC,0.00,VWS V14.01,2013-05-02 04:03:00,
2013-05-01 21:06:00,74.0,26.5,30.04,North,0,3.0,3.0,17,0.00,,SKC,0.00,VWS V14.01,2013-05-02 04:06:00,
2013-05-01 21:10:00,74.0,26.5,30.04,NNE,22,2.0,3.0,17,0.00,,SKC,0.00,VWS V14.01,2013-05-02 04:10:00,
2013-05-01 21:15:00,74.0,26.5,30.04,NE,45,1.0,2.0,17,0.00,,SKC,0.00,VWS V14.01,2013-05-02 04:15:00,
2013-05-01 21:20:00,74.0,26.5,30.04,North,0,1.0,2.0,17,0.00,,SKC,0.00,VWS V14.01,2013-05-02 04:20:00,
2013-05-01 21:25:00,74.0,26.5,30.04,North,0,2.0,3.0,17,0.00,,SKC,0.00,VWS V14.01,2013-05-02 04:25:00,
2013-05-01 21:30:00,74.0,26.5,30.04,NNE,22,3.0,3.0,17,0.00,,SKC,0.00,VWS V14.01,2013-05-02 04:30:00,
2013-05-01 21:35:00,74.0,26.5,30.04,NE,45,2.0,3.0,17,0.00,,SKC,0.00,VWS V14.01,2013-05-02 04:35:00,
2013-05-01 21:40:00,74.0,26.5,30.05,NNE,22,4.0,5.0,17,0.00,,SKC,0.00,VWS V14.01,2013-05-02 04:40:00,
2013-05-01 21:45:00,74.0,27.9,30.05,NNE,22,5.0,5.0,18,0.00,,SKC,0.00,VWS V14.01,2013-05-02 04:45:00,
2013-05-01 21:51:00,73.0,25.6,30.05,NNE,22,5.0,5.0,17,0.00,,SKC,0.00,VWS V14.01,2013-05-02 04:51:00,
2013-05-01 21:56:00,73.0,25.6,30.05,NNE,22,3.0,3.0,17,0.00,,SKC,0.00,VWS V14.01,2013-05-02 04:56:00,
2013-05-01 22:01:00,73.0,27.0,30.05,NNE,22,3.0,4.0,18,0.00,,SKC,0.00,VWS V14.01,2013-05-02 05:01:00,
2013-05-01 22:06:00,74.0,27.9,30.05,NNE,22,4.0,4.0,18,0.00,,SKC,0.00,VWS V14.01,2013-05-02 05:06:00,
2013-05-01 22:11:00,74.0,27.9,30.05,NE,45,1.0,2.0,18,0.00,,SKC,0.00,VWS V14.01,2013-05-02 05:11:00,
2013-05-01 22:16:00,74.0,26.5,30.05,NNE,22,2.0,3.0,17,0.00,,SKC,0.00,VWS V14.01,2013-05-02 05:16:00,
2013-05-01 22:21:00,74.0,26.5,30.06,North,0,4.0,4.0,17,0.00,,SKC,0.00,VWS V14.01,2013-05-02 05:21:00,
2013-05-01 22:26:00,73.0,25.6,30.06,NNE,22,2.0,2.0,17,0.00,,SKC,0.00,VWS V14.01,2013-05-02 05:26:00,
2013-05-01 22:31:00,73.0,27.0,30.06,NE,45,4.0,5.0,18,0.00,,SKC,0.00,VWS V14.01,2013-05-02 05:31:00,
2013-05-01 22:36:00,73.0,27.0,30.06,North,0,1.0,1.0,18,0.00,,SKC,0.00,VWS V14.01,2013-05-02 05:36:00,
2013-05-01 22:41:00,73.0,27.0,30.06,NE,45,2.0,3.0,18,0.00,,SKC,0.00,VWS V14.01,2013-05-02 05:41:00,
2013-05-01 22:46:00,72.0,26.2,30.06,NE,45,1.0,1.0,18,0.00,,SKC,0.00,VWS V14.01,2013-05-02 05:46:00,
2013-05-01 22:51:00,72.0,26.2,30.06,NNE,22,5.0,5.0,18,0.00,,SKC,0.00,VWS V14.01,2013-05-02 05:51:00,
2013-05-01 22:56:00,72.0,26.2,30.06,NE,45,2.0,2.0,18,0.00,,SKC,0.00,VWS V14.01,2013-05-02 05:56:00,
2013-05-01 23:01:00,72.0,26.2,30.06,NNW,338,3.0,3.0,18,0.00,,SKC,0.00,VWS V14.01,2013-05-02 06:01:00,
2013-05-01 23:06:00,72.0,26.2,30.07,NE,45,4.0,4.0,18,0.00,,SKC,0.00,VWS V14.01,2013-05-02 06:06:00,
2013-05-01 23:11:00,72.0,27.5,30.07,North,0,3.0,4.0,19,0.00,,SKC,0.00,VWS V14.01,2013-05-02 06:11:00,
2013-05-01 23:16:00,71.0,25.4,30.06,North,0,3.0,3.0,18,0.00,,SKC,0.00,VWS V14.01,2013-05-02 06:16:00,
2013-05-01 23:21:00,71.0,26.7,30.07,NNW,338,3.0,3.0,19,0.00,,SKC,0.00,VWS V14.01,2013-05-02 06:21:00,
2013-05-01 23:26:00,71.0,26.7,30.07,NNE,22,3.0,5.0,19,0.00,,SKC,0.00,VWS V14.01,2013-05-02 06:26:00,
2013-05-01 23:31:00,71.0,26.7,30.07,North,0,4.0,4.0,19,0.00,,SKC,0.00,VWS V14.01,2013-05-02 06:31:00,
2013-05-01 23:36:00,71.0,26.7,30.07,North,0,3.0,3.0,19,0.00,,SKC,0.00,VWS V14.01,2013-05-02 06:36:00,
2013-05-01 23:41:00,71.0,26.7,30.07,North,0,3.0,3.0,19,0.00,,SKC,0.00,VWS V14.01,2013-05-02 06:41:00,
2013-05-01 23:46:00,71.0,26.7,30.07,North,0,5.0,6.0,19,0.00,,SKC,0.00,VWS V14.01,2013-05-02 06:46:00,
2013-05-01 23:51:00,71.0,26.7,30.07,North,0,3.0,3.0,19,0.00,,SKC,0.00,VWS V14.01,2013-05-02 06:51:00,
2013-05-01 23:56:00,71.0,26.7,30.07,NNW,338,3.0,3.0,19,0.00,,SKC,0.00,VWS V14.01,2013-05-02 06:56:00,